{"data":{"norad_id":67950,"intl_designator":"2026-037U","name":"STARLINK-36887","alt_names":[],"object_type":"PAYLOAD","status":"ACTIVE","operator":null,"country":"US","launch_date":"2026-02-24","launch_site_code":"AFETR","launch_vehicle":null,"mission":null,"orbit_class":"UNKNOWN","rcs_meters":null,"size_class":null,"mass_kg":null,"dimensions":null,"purposes":["comms"],"wikipedia_slug":null,"has_3d_model":false,"image_url":null,"decayed_at":null,"tle_current":{"epoch":"2026-05-24T23:29:49.686720Z","epoch_age_seconds":91003,"freshness":"FRESH","line1":"1 67950U 26037U   26144.97904730  .00014422  00000+0  53240-3 0  9990","line2":"2 67950  43.0038 120.2887 0001972 269.1825  90.8801 15.27591129 15001","mean_motion":15.27591129,"eccentricity":0.0001972,"inclination_deg":43.0038,"raan_deg":120.2887,"arg_perigee_deg":269.1825,"mean_anomaly_deg":90.8801,"bstar":0.0005324,"rev_number":1500,"period_min":94.266061949617,"perigee_km":481.66275268569,"apogee_km":484.36879133897,"semimajor_km":6861.1527720123,"source":"CELESTRAK","updated_at":"2026-05-25T13:38:21.770083Z"}}}